This is the latest recevied weather packets stored in our database for station/object I2HLY-4. If no packets are shown the sender has not sent any weather packets the latest 10 day(s).
| Time | Temp. | Humidity | Pressure | Rain* | Wind** | Luminosity | Snow |
|---|---|---|---|---|---|---|---|
| 1778001449 | 8.89° C | 97% | 1013.7 hPa | 0 mm | - | - | - |
| 1778000531 | 8.89° C | 96% | 1013.7 hPa | 0 mm | - | - | - |
| 1777999634 | 8.89° C | 96% | 1013.7 hPa | 0 mm | - | - | - |
| 1777998734 | 8.89° C | 96% | 1013.8 hPa | 0 mm | - | - | - |
| 1777997836 | 8.89° C | 96% | 1013.9 hPa | 1.02 mm | - | - | - |
| 1777996943 | 8.89° C | 96% | 1014 hPa | 1.02 mm | - | - | - |
| 1777996043 | 8.89° C | 96% | 1014 hPa | 1.02 mm | - | - | - |
| 1777995148 | 8.89° C | 96% | 1014.1 hPa | 2.03 mm | - | - | - |
| 1777994249 | 8.89° C | 96% | 1014.1 hPa | 3.05 mm | - | - | - |
| 1777993331 | 8.89° C | 96% | 1014.1 hPa | 3.05 mm | - | - | - |
| 1777992434 | 8.89° C | 96% | 1014.2 hPa | 3.05 mm | - | - | - |
| 1777991534 | 8.33° C | 96% | 1014.2 hPa | 2.03 mm | - | - | - |
| 1777990639 | 8.33° C | 95% | 1014.2 hPa | 0 mm | - | - | - |
| 1777989739 | 8.89° C | 95% | 1014.2 hPa | 0 mm | - | - | - |
| 1777988839 | 8.89° C | 95% | 1014.1 hPa | 0 mm | - | - | - |
| 1777987943 | 8.89° C | 95% | 1014.2 hPa | 0 mm | - | - | - |
| 1777987044 | 8.89° C | 95% | 1014.3 hPa | 0 mm | - | - | - |
| 1777986142 | 8.89° C | 95% | 1014.2 hPa | 0 mm | - | - | - |
| 1777985246 | 8.33° C | 95% | 1014.3 hPa | 1.02 mm | - | - | - |
| 1777984346 | 8.33° C | 95% | 1014.5 hPa | 1.02 mm | - | - | - |
| 1777983451 | 8.33° C | 95% | 1014.6 hPa | 2.03 mm | - | - | - |
| 1777982531 | 8.33° C | 95% | 1014.5 hPa | 2.03 mm | - | - | - |
| 1777981632 | 8.33° C | 94% | 1014.5 hPa | 1.02 mm | - | - | - |
| 1777980737 | 8.89° C | 94% | 1014.4 hPa | 2.03 mm | - | - | - |
| 1777979836 | 8.89° C | 93% | 1014.6 hPa | 1.02 mm | - | - | - |
* Rain latest hour (hover to see other rain measurements)
** Current wind speed in m/s (hover to see current wind gust speed)